User: anonymous   Login
Location: Albany
(35.0000°S, 118.0000°E)
Time: 09:42:27
(UTC-04:00)
Language:

Radarsat Rocket - Orbit

View from above orbital plane
View from above orbital plane
View from above satellite
View from above satellite

Ground track
Ground track

The orbit data is extracted from the following two-line orbital elements,

1 23711U 95059B   14302.84609185  .00000188  00000-0  46215-3 0  7966
2 23711 100.4634 286.0760 0367906 335.7020 079.7670 13.12651474909664
Epoch (UTC): 29 October 2014 20:18:22
Eccentricity: 0.0367906
inclination: 100.4634°
perigee height: 933 km
apogee height: 1492 km
right ascension of ascending node: 286.0760°
argument of perigee: 335.7020°
revolutions per day: 13.12651474
mean anomaly at epoch: 79.7670°
orbit number at epoch: 90966

The dashed part of the orbit path shows where the satellite is in the earth's shadow,  

DLR